User: anonymous   Login
Location: Santa Barbara
(34.4500°N, 119.7700°W)
Time: 23:27:54
(UTC-07:00)
Language:

Cosmos 1626 Rocket - Orbit

View from above orbital plane
View from above orbital plane
View from above satellite
View from above satellite

Ground track
Ground track

The orbit data is extracted from the following two-line orbital elements,

1 15495U 85009B   16239.13318634  .00000073  00000-0  59286-5 0  9991
2 15495  82.5236 103.8381 0019106 220.3539 139.6260 14.83722215706215
Epoch (UTC): 26 August 2016 03:11:47
Eccentricity: 0.0019106
inclination: 82.5236°
perigee height: 604 km
apogee height: 631 km
right ascension of ascending node: 103.8381°
argument of perigee: 220.3539°
revolutions per day: 14.83722215
mean anomaly at epoch: 139.6260°
orbit number at epoch: 70621

The dashed part of the orbit path shows where the satellite is in the earth's shadow,  

DLR